Time,TemperatureF,DewpointF,PressureIn,WindDirection,WindDirectionDegrees,WindSpeedMPH,WindSpeedGustMPH,Humidity,HourlyPrecipIn,Conditions,Clouds,dailyrainin,SoftwareType,DateUTC
2013-06-14 00:00:00,60.1,53.6,30.00,ENE,62,3.0,3.0,79,0.00,,,0.00,Wunderground v.1.15,2013-06-14 05:00:00,
2013-06-14 00:05:00,59.9,53.7,30.00,ESE,108,3.0,3.0,80,0.00,,,0.00,Wunderground v.1.15,2013-06-14 05:05:00,
2013-06-14 00:10:00,59.8,53.6,30.00,NE,53,3.0,4.0,80,0.00,,,0.00,Wunderground v.1.15,2013-06-14 05:10:00,
2013-06-14 00:15:00,59.6,53.4,30.00,East,100,3.0,4.0,80,0.00,,,0.00,Wunderground v.1.15,2013-06-14 05:15:00,
2013-06-14 00:20:00,59.4,53.2,30.00,ENE,76,3.0,3.0,80,0.00,,,0.00,Wunderground v.1.15,2013-06-14 05:20:00,
2013-06-14 00:25:00,59.3,53.1,30.00,ENE,76,3.0,4.0,80,0.00,,,0.00,Wunderground v.1.15,2013-06-14 05:25:00,
2013-06-14 00:30:00,59.1,53.3,30.00,East,92,3.0,3.0,81,0.00,,,0.00,Wunderground v.1.15,2013-06-14 05:30:00,
2013-06-14 00:35:00,59.0,53.2,30.00,East,85,3.0,8.0,81,0.00,,,0.00,Wunderground v.1.15,2013-06-14 05:35:00,
2013-06-14 00:40:00,58.9,53.1,30.00,East,83,3.0,7.0,81,0.00,,,0.00,Wunderground v.1.15,2013-06-14 05:40:00,
2013-06-14 00:45:00,58.8,53.0,30.00,ENE,71,2.0,7.0,81,0.00,,,0.00,Wunderground v.1.15,2013-06-14 05:45:00,
2013-06-14 00:50:00,58.7,53.2,30.00,NE,42,2.0,2.0,82,0.00,,,0.00,Wunderground v.1.15,2013-06-14 05:50:00,
2013-06-14 00:55:00,58.5,53.0,30.00,East,82,2.0,3.0,82,0.00,,,0.00,Wunderground v.1.15,2013-06-14 05:55:00,
2013-06-14 01:00:00,58.4,52.9,30.00,East,100,2.0,5.0,82,0.00,,,0.00,Wunderground v.1.15,2013-06-14 06:00:00,
2013-06-14 01:05:00,58.3,52.8,30.00,NE,46,2.0,5.0,82,0.00,,,0.00,Wunderground v.1.15,2013-06-14 06:05:00,
2013-06-14 01:10:00,58.2,52.7,30.01,NE,53,2.0,4.0,82,0.00,,,0.00,Wunderground v.1.15,2013-06-14 06:10:00,
2013-06-14 01:15:00,58.2,53.1,30.01,East,81,2.0,4.0,83,0.00,,,0.00,Wunderground v.1.15,2013-06-14 06:15:00,
2013-06-14 01:20:00,58.0,52.9,30.01,NNE,32,2.0,3.0,83,0.00,,,0.00,Wunderground v.1.15,2013-06-14 06:20:00,
2013-06-14 01:25:00,57.9,52.8,30.01,East,84,2.0,3.0,83,0.00,,,0.00,Wunderground v.1.15,2013-06-14 06:25:00,
2013-06-14 01:30:00,57.8,52.7,30.01,ENE,71,2.0,2.0,83,0.00,,,0.00,Wunderground v.1.15,2013-06-14 06:30:00,
2013-06-14 01:35:00,57.7,52.9,30.01,East,81,2.0,2.0,84,0.00,,,0.00,Wunderground v.1.15,2013-06-14 06:35:00,
2013-06-14 01:40:00,57.6,52.8,30.01,East,80,2.0,2.0,84,0.00,,,0.00,Wunderground v.1.15,2013-06-14 06:40:00,
2013-06-14 01:45:00,57.5,52.7,30.01,NE,44,2.0,2.0,84,0.00,,,0.00,Wunderground v.1.15,2013-06-14 06:45:00,
2013-06-14 01:50:00,57.5,52.7,30.01,NE,53,2.0,3.0,84,0.00,,,0.00,Wunderground v.1.15,2013-06-14 06:50:00,
2013-06-14 01:55:00,57.5,52.7,30.01,East,81,2.0,3.0,84,0.00,,,0.00,Wunderground v.1.15,2013-06-14 06:55:00,
2013-06-14 02:00:00,57.5,52.7,30.01,ENE,67,2.0,2.0,84,0.00,,,0.00,Wunderground v.1.15,2013-06-14 07:00:00,
2013-06-14 02:05:00,57.4,52.6,30.01,ESE,102,2.0,2.0,84,0.00,,,0.00,Wunderground v.1.15,2013-06-14 07:05:00,
2013-06-14 02:10:00,57.4,52.6,30.02,NE,49,2.0,2.0,84,0.00,,,0.00,Wunderground v.1.15,2013-06-14 07:10:00,
2013-06-14 02:15:00,57.3,52.5,30.01,NNE,22,2.0,2.0,84,0.00,,,0.00,Wunderground v.1.15,2013-06-14 07:15:00,
2013-06-14 02:20:00,57.2,52.4,30.01,ENE,70,2.0,2.0,84,0.00,,,0.00,Wunderground v.1.15,2013-06-14 07:20:00,
2013-06-14 02:25:00,57.1,52.6,30.01,ENE,73,1.0,2.0,85,0.00,,,0.00,Wunderground v.1.15,2013-06-14 07:25:00,
2013-06-14 02:30:00,57.1,52.6,30.02,ENE,73,1.0,1.0,85,0.00,,,0.00,Wunderground v.1.15,2013-06-14 07:30:00,
2013-06-14 02:35:00,56.9,52.4,30.02,East,86,1.0,3.0,85,0.00,,,0.00,Wunderground v.1.15,2013-06-14 07:35:00,
2013-06-14 02:40:00,56.9,52.4,30.02,ENE,68,2.0,2.0,85,0.00,,,0.00,Wunderground v.1.15,2013-06-14 07:40:00,
2013-06-14 02:45:00,56.8,52.3,30.02,NNE,17,1.0,2.0,85,0.00,,,0.00,Wunderground v.1.15,2013-06-14 07:45:00,
2013-06-14 02:50:00,56.7,52.2,30.02,NE,35,1.0,1.0,85,0.00,,,0.00,Wunderground v.1.15,2013-06-14 07:50:00,
2013-06-14 02:55:00,56.6,52.5,30.02,NE,49,1.0,2.0,86,0.00,,,0.00,Wunderground v.1.15,2013-06-14 07:55:00,
2013-06-14 03:00:00,56.5,52.4,30.02,NE,38,1.0,1.0,86,0.00,,,0.00,Wunderground v.1.15,2013-06-14 08:00:00,
2013-06-14 03:05:00,56.4,52.3,30.02,ENE,57,1.0,2.0,86,0.00,,,0.00,Wunderground v.1.15,2013-06-14 08:05:00,
2013-06-14 03:10:00,56.2,52.1,30.02,ENE,59,1.0,1.0,86,0.00,,,0.00,Wunderground v.1.15,2013-06-14 08:10:00,
2013-06-14 03:15:00,56.1,52.0,30.02,ENE,59,1.0,1.0,86,0.00,,,0.00,Wunderground v.1.15,2013-06-14 08:15:00,
2013-06-14 03:20:00,56.0,51.9,30.01,East,81,1.0,1.0,86,0.00,,,0.00,Wunderground v.1.15,2013-06-14 08:20:00,
2013-06-14 03:25:00,55.9,51.8,30.01,NE,44,1.0,1.0,86,0.00,,,0.00,Wunderground v.1.15,2013-06-14 08:25:00,
2013-06-14 03:30:00,55.8,52.0,30.02,NE,44,1.0,1.0,87,0.00,,,0.00,Wunderground v.1.15,2013-06-14 08:30:00,
2013-06-14 03:35:00,55.7,51.9,30.02,NNE,31,1.0,1.0,87,0.00,,,0.00,Wunderground v.1.15,2013-06-14 08:35:00,
2013-06-14 03:40:00,55.6,51.8,30.02,NNE,31,1.0,1.0,87,0.00,,,0.00,Wunderground v.1.15,2013-06-14 08:40:00,
2013-06-14 03:45:00,55.5,51.7,30.02,NE,46,1.0,1.0,87,0.00,,,0.00,Wunderground v.1.15,2013-06-14 08:45:00,
2013-06-14 03:50:00,55.4,51.6,30.02,NE,38,1.0,1.0,87,0.00,,,0.00,Wunderground v.1.15,2013-06-14 08:50:00,
2013-06-14 03:55:00,55.3,51.8,30.03,NE,38,0.0,1.0,88,0.00,,,0.00,Wunderground v.1.15,2013-06-14 08:55:00,
2013-06-14 04:00:00,55.1,51.6,30.03,NE,38,0.0,1.0,88,0.00,,,0.00,Wunderground v.1.15,2013-06-14 09:00:00,
2013-06-14 04:05:00,54.9,51.4,30.03,NE,38,1.0,1.0,88,0.00,,,0.00,Wunderground v.1.15,2013-06-14 09:05:00,
2013-06-14 04:10:00,54.6,51.4,30.03,NE,38,0.0,0.0,89,0.00,,,0.00,Wunderground v.1.15,2013-06-14 09:10:00,
2013-06-14 04:15:00,54.3,51.1,30.03,NE,38,0.0,0.0,89,0.00,,,0.00,Wunderground v.1.15,2013-06-14 09:15:00,
2013-06-14 04:20:00,54.2,51.3,30.02,NE,38,0.0,0.0,90,0.00,,,0.00,Wunderground v.1.15,2013-06-14 09:20:00,
2013-06-14 04:25:00,54.0,51.1,30.03,NE,38,0.0,1.0,90,0.00,,,0.00,Wunderground v.1.15,2013-06-14 09:25:00,
2013-06-14 04:30:00,53.9,51.0,30.02,North,360,1.0,1.0,90,0.00,,,0.00,Wunderground v.1.15,2013-06-14 09:30:00,
2013-06-14 04:40:00,54.2,51.3,30.02,NE,35,2.0,2.0,90,0.00,,,0.00,Wunderground v.1.15,2013-06-14 09:40:00,
2013-06-14 04:45:00,54.4,51.5,30.02,NNE,14,2.0,3.0,90,0.00,,,0.00,Wunderground v.1.15,2013-06-14 09:45:00,
2013-06-14 04:50:00,54.6,51.4,30.03,NNE,30,2.0,2.0,89,0.00,,,0.00,Wunderground v.1.15,2013-06-14 09:50:00,
2013-06-14 04:55:00,54.8,51.6,30.03,NNE,24,2.0,2.0,89,0.00,,,0.00,Wunderground v.1.15,2013-06-14 09:55:00,
2013-06-14 05:00:00,54.9,51.4,30.02,ENE,63,2.0,2.0,88,0.00,,,0.00,Wunderground v.1.15,2013-06-14 10:00:00,
2013-06-14 05:10:00,54.7,51.5,30.02,ENE,64,1.0,1.0,89,0.00,,,0.00,Wunderground v.1.15,2013-06-14 10:10:00,
2013-06-14 05:15:00,54.7,51.5,30.01,NE,49,2.0,2.0,89,0.00,,,0.00,Wunderground v.1.15,2013-06-14 10:15:00,
2013-06-14 05:20:00,54.6,51.4,30.01,ENE,71,1.0,1.0,89,0.00,,,0.00,Wunderground v.1.15,2013-06-14 10:20:00,
2013-06-14 05:25:00,54.6,51.4,30.01,NNE,15,1.0,3.0,89,0.00,,,0.00,Wunderground v.1.15,2013-06-14 10:25:00,
2013-06-14 05:30:00,54.6,51.4,30.02,ENE,60,1.0,1.0,89,0.00,,,0.00,Wunderground v.1.15,2013-06-14 10:30:00,
2013-06-14 05:35:00,54.6,51.4,30.02,ENE,70,1.0,1.0,89,0.00,,,0.00,Wunderground v.1.15,2013-06-14 10:35:00,
2013-06-14 05:40:00,54.5,51.3,30.02,NE,37,1.0,1.0,89,0.00,,,0.00,Wunderground v.1.15,2013-06-14 10:40:00,
2013-06-14 05:45:00,54.5,51.3,30.02,NNE,32,1.0,3.0,89,0.00,,,0.00,Wunderground v.1.15,2013-06-14 10:45:00,
2013-06-14 05:50:00,54.6,51.4,30.02,NE,49,1.0,2.0,89,0.00,,,0.00,Wunderground v.1.15,2013-06-14 10:50:00,
2013-06-14 05:55:00,54.6,51.4,30.02,ENE,71,1.0,2.0,89,0.00,,,0.00,Wunderground v.1.15,2013-06-14 10:55:00,
2013-06-14 06:00:00,54.7,51.5,30.02,North,11,1.0,3.0,89,0.00,,,0.00,Wunderground v.1.15,2013-06-14 11:00:00,
2013-06-14 06:05:00,54.8,51.6,30.03,NNE,22,2.0,3.0,89,0.00,,,0.00,Wunderground v.1.15,2013-06-14 11:05:00,
2013-06-14 06:10:00,55.0,51.8,30.04,NNE,26,2.0,2.0,89,0.00,,,0.00,Wunderground v.1.15,2013-06-14 11:10:00,
2013-06-14 06:20:00,55.4,51.9,30.04,NNE,32,2.0,2.0,88,0.00,,,0.00,Wunderground v.1.15,2013-06-14 11:20:00,
2013-06-14 06:25:00,55.6,52.1,30.04,NNE,29,2.0,2.0,88,0.00,,,0.00,Wunderground v.1.15,2013-06-14 11:25:00,
2013-06-14 06:30:00,55.8,52.3,30.05,North,351,2.0,2.0,88,0.00,,,0.00,Wunderground v.1.15,2013-06-14 11:30:00,
2013-06-14 06:35:00,56.1,52.3,30.04,NE,42,2.0,2.0,87,0.00,,,0.00,Wunderground v.1.15,2013-06-14 11:35:00,
2013-06-14 06:40:00,56.4,52.3,30.05,NE,45,2.0,2.0,86,0.00,,,0.00,Wunderground v.1.15,2013-06-14 11:40:00,
2013-06-14 06:45:00,56.8,52.3,30.05,ENE,58,2.0,2.0,85,0.00,,,0.00,Wunderground v.1.15,2013-06-14 11:45:00,
2013-06-14 06:55:00,57.5,52.4,30.05,ENE,60,2.0,3.0,83,0.00,,,0.00,Wunderground v.1.15,2013-06-14 11:55:00,
2013-06-14 07:00:00,58.2,52.7,30.05,ENE,64,3.0,3.0,82,0.00,,,0.00,Wunderground v.1.15,2013-06-14 12:00:00,
2013-06-14 07:05:00,58.9,52.7,30.05,East,80,3.0,3.0,80,0.00,,,0.00,Wunderground v.1.15,2013-06-14 12:05:00,
2013-06-14 07:10:00,59.7,52.8,30.05,East,84,2.0,2.0,78,0.00,,,0.00,Wunderground v.1.15,2013-06-14 12:10:00,
2013-06-14 07:15:00,60.2,53.0,30.05,ENE,69,2.0,2.0,77,0.00,,,0.00,Wunderground v.1.15,2013-06-14 12:15:00,
2013-06-14 07:20:00,60.8,53.2,30.06,NNE,16,2.0,2.0,76,0.00,,,0.00,Wunderground v.1.15,2013-06-14 12:20:00,
2013-06-14 07:25:00,61.3,52.9,30.06,ENE,63,2.0,2.0,74,0.00,,,0.00,Wunderground v.1.15,2013-06-14 12:25:00,
2013-06-14 07:30:00,61.8,53.8,30.06,NNE,12,2.0,2.0,75,0.00,,,0.00,Wunderground v.1.15,2013-06-14 12:30:00,
2013-06-14 07:35:00,62.2,53.1,30.06,ENE,61,2.0,2.0,72,0.00,,,0.00,Wunderground v.1.15,2013-06-14 12:35:00,
2013-06-14 07:40:00,62.7,53.5,30.07,North,11,2.0,3.0,72,0.00,,,0.00,Wunderground v.1.15,2013-06-14 12:40:00,
2013-06-14 07:45:00,63.1,53.5,30.07,North,9,2.0,3.0,71,0.00,,,0.00,Wunderground v.1.15,2013-06-14 12:45:00,
2013-06-14 07:50:00,63.4,53.4,30.08,North,11,2.0,2.0,70,0.00,,,0.00,Wunderground v.1.15,2013-06-14 12:50:00,
2013-06-14 07:55:00,63.9,54.3,30.08,NE,34,2.0,2.0,71,0.00,,,0.00,Wunderground v.1.15,2013-06-14 12:55:00,
2013-06-14 08:00:00,64.1,54.5,30.08,NNE,24,1.0,1.0,71,0.00,,,0.00,Wunderground v.1.15,2013-06-14 13:00:00,
2013-06-14 08:05:00,64.8,53.6,30.08,North,360,1.0,2.0,67,0.00,,,0.00,Wunderground v.1.15,2013-06-14 13:05:00,
2013-06-14 08:10:00,65.2,54.0,30.08,ENE,77,2.0,3.0,67,0.00,,,0.00,Wunderground v.1.15,2013-06-14 13:10:00,
2013-06-14 08:15:00,65.5,53.8,30.08,ENE,76,2.0,3.0,66,0.00,,,0.00,Wunderground v.1.15,2013-06-14 13:15:00,
2013-06-14 08:20:00,65.9,54.6,30.08,ENE,76,2.0,2.0,67,0.00,,,0.00,Wunderground v.1.15,2013-06-14 13:20:00,
2013-06-14 08:25:00,66.1,53.6,30.09,ENE,63,2.0,2.0,64,0.00,,,0.00,Wunderground v.1.15,2013-06-14 13:25:00,
2013-06-14 08:30:00,66.2,55.3,30.10,NE,42,1.0,1.0,68,0.00,,,0.00,Wunderground v.1.15,2013-06-14 13:30:00,
2013-06-14 08:35:00,66.1,54.0,30.10,NNE,13,1.0,1.0,65,0.00,,,0.00,Wunderground v.1.15,2013-06-14 13:35:00,
2013-06-14 08:40:00,66.3,54.2,30.10,NNW,333,1.0,2.0,65,0.00,,,0.00,Wunderground v.1.15,2013-06-14 13:40:00,
2013-06-14 08:45:00,65.9,53.8,30.10,North,11,1.0,2.0,65,0.00,,,0.00,Wunderground v.1.15,2013-06-14 13:45:00,
2013-06-14 08:50:00,65.8,54.5,30.10,NNE,20,1.0,1.0,67,0.00,,,0.00,Wunderground v.1.15,2013-06-14 13:50:00,
2013-06-14 08:55:00,66.1,54.8,30.10,NNE,24,1.0,2.0,67,0.00,,,0.00,Wunderground v.1.15,2013-06-14 13:55:00,
2013-06-14 09:00:00,66.6,54.9,30.10,North,355,2.0,4.0,66,0.00,,,0.00,Wunderground v.1.15,2013-06-14 14:00:00,
2013-06-14 09:05:00,67.4,54.8,30.10,NNE,30,2.0,4.0,64,0.00,,,0.00,Wunderground v.1.15,2013-06-14 14:05:00,
2013-06-14 09:10:00,67.8,56.4,30.10,NE,37,2.0,2.0,67,0.00,,,0.00,Wunderground v.1.15,2013-06-14 14:10:00,
2013-06-14 09:15:00,68.3,55.6,30.10,East,101,2.0,2.0,64,0.00,,,0.00,Wunderground v.1.15,2013-06-14 14:15:00,
2013-06-14 09:20:00,68.7,56.0,30.10,NNE,14,1.0,1.0,64,0.00,,,0.00,Wunderground v.1.15,2013-06-14 14:20:00,
2013-06-14 09:25:00,69.2,56.9,30.09,NNE,19,2.0,2.0,65,0.00,,,0.00,Wunderground v.1.15,2013-06-14 14:25:00,
2013-06-14 09:30:00,69.4,56.3,30.09,North,5,2.0,2.0,63,0.00,,,0.00,Wunderground v.1.15,2013-06-14 14:30:00,
2013-06-14 09:35:00,69.9,57.2,30.08,NNW,344,2.0,3.0,64,0.00,,,0.00,Wunderground v.1.15,2013-06-14 14:35:00,
2013-06-14 09:40:00,70.5,56.9,30.08,NNE,15,2.0,3.0,62,0.00,,,0.00,Wunderground v.1.15,2013-06-14 14:40:00,
2013-06-14 09:45:00,70.9,56.3,30.08,NE,54,2.0,3.0,60,0.00,,,0.00,Wunderground v.1.15,2013-06-14 14:45:00,
2013-06-14 09:50:00,71.2,57.5,30.08,NE,55,2.0,2.0,62,0.00,,,0.00,Wunderground v.1.15,2013-06-14 14:50:00,
2013-06-14 09:55:00,71.4,57.2,30.08,NNE,18,2.0,2.0,61,0.00,,,0.00,Wunderground v.1.15,2013-06-14 14:55:00,
2013-06-14 10:00:00,71.7,57.5,30.08,ENE,78,3.0,3.0,61,0.00,,,0.00,Wunderground v.1.15,2013-06-14 15:00:00,
2013-06-14 10:05:00,71.6,57.9,30.07,ESE,108,2.0,3.0,62,0.00,,,0.00,Wunderground v.1.15,2013-06-14 15:05:00,
2013-06-14 10:10:00,71.2,57.1,30.07,NNE,30,2.0,2.0,61,0.00,,,0.00,Wunderground v.1.15,2013-06-14 15:10:00,
2013-06-14 10:15:00,71.0,57.3,30.07,SE,126,2.0,2.0,62,0.00,,,0.00,Wunderground v.1.15,2013-06-14 15:15:00,
2013-06-14 10:20:00,70.6,57.8,30.07,ENE,64,1.0,2.0,64,0.00,,,0.00,Wunderground v.1.15,2013-06-14 15:20:00,
2013-06-14 10:25:00,70.9,58.1,30.07,ENE,57,2.0,5.0,64,0.00,,,0.00,Wunderground v.1.15,2013-06-14 15:25:00,
2013-06-14 10:30:00,71.5,58.2,30.07,East,83,3.0,5.0,63,0.00,,,0.00,Wunderground v.1.15,2013-06-14 15:30:00,
2013-06-14 10:35:00,72.1,59.2,30.07,NE,54,3.0,5.0,64,0.00,,,0.00,Wunderground v.1.15,2013-06-14 15:35:00,
2013-06-14 10:40:00,72.8,59.0,30.06,East,89,2.0,3.0,62,0.00,,,0.00,Wunderground v.1.15,2013-06-14 15:40:00,
2013-06-14 10:45:00,73.2,58.9,30.06,East,82,2.0,3.0,61,0.00,,,0.00,Wunderground v.1.15,2013-06-14 15:45:00,
2013-06-14 10:50:00,73.2,58.5,30.06,East,88,3.0,3.0,60,0.00,,,0.00,Wunderground v.1.15,2013-06-14 15:50:00,
2013-06-14 10:55:00,73.2,58.5,30.06,ESE,112,3.0,3.0,60,0.00,,,0.00,Wunderground v.1.15,2013-06-14 15:55:00,
2013-06-14 11:00:00,73.1,59.3,30.05,ESE,109,2.0,5.0,62,0.00,,,0.00,Wunderground v.1.15,2013-06-14 16:00:00,
2013-06-14 11:05:00,72.7,58.9,30.05,ENE,57,2.0,5.0,62,0.00,,,0.00,Wunderground v.1.15,2013-06-14 16:05:00,
2013-06-14 11:10:00,72.8,59.5,30.05,ESE,117,3.0,3.0,63,0.00,,,0.00,Wunderground v.1.15,2013-06-14 16:10:00,
2013-06-14 11:15:00,72.9,58.2,30.05,SSE,159,3.0,3.0,60,0.00,,,0.00,Wunderground v.1.15,2013-06-14 16:15:00,
2013-06-14 11:20:00,72.6,58.8,30.05,East,81,3.0,6.0,62,0.00,,,0.00,Wunderground v.1.15,2013-06-14 16:20:00,
2013-06-14 11:30:00,72.6,59.3,30.05,ENE,75,4.0,4.0,63,0.00,,,0.00,Wunderground v.1.15,2013-06-14 16:30:00,
2013-06-14 11:35:00,72.9,60.0,30.05,NE,36,4.0,4.0,64,0.00,,,0.00,Wunderground v.1.15,2013-06-14 16:35:00,
2013-06-14 11:40:00,73.3,60.4,30.05,ENE,61,3.0,3.0,64,0.00,,,0.00,Wunderground v.1.15,2013-06-14 16:40:00,
2013-06-14 11:45:00,73.8,60.0,30.05,ESE,123,3.0,3.0,62,0.00,,,0.00,Wunderground v.1.15,2013-06-14 16:45:00,
2013-06-14 11:50:00,73.9,60.1,30.05,ESE,110,3.0,3.0,62,0.00,,,0.00,Wunderground v.1.15,2013-06-14 16:50:00,
2013-06-14 11:55:00,74.0,58.8,30.05,SE,143,3.0,4.0,59,0.00,,,0.00,Wunderground v.1.15,2013-06-14 16:55:00,
2013-06-14 12:00:00,74.0,59.7,30.05,ESE,123,3.0,7.0,61,0.00,,,0.00,Wunderground v.1.15,2013-06-14 17:00:00,
2013-06-14 12:05:00,74.2,59.9,30.05,ESE,115,3.0,7.0,61,0.00,,,0.00,Wunderground v.1.15,2013-06-14 17:05:00,
2013-06-14 12:10:00,74.5,59.2,30.05,ESE,123,3.0,3.0,59,0.00,,,0.00,Wunderground v.1.15,2013-06-14 17:10:00,
2013-06-14 12:15:00,75.0,59.2,30.06,ESE,105,3.0,3.0,58,0.00,,,0.00,Wunderground v.1.15,2013-06-14 17:15:00,
2013-06-14 12:20:00,75.2,58.4,30.07,East,99,3.0,3.0,56,0.00,,,0.00,Wunderground v.1.15,2013-06-14 17:20:00,
2013-06-14 12:25:00,75.8,60.4,30.07,ESE,111,3.0,3.0,59,0.00,,,0.00,Wunderground v.1.15,2013-06-14 17:25:00,
2013-06-14 12:30:00,76.1,58.8,30.06,NNW,339,2.0,2.0,55,0.00,,,0.00,Wunderground v.1.15,2013-06-14 17:30:00,
2013-06-14 12:40:00,77.0,59.1,30.07,NNE,22,3.0,3.0,54,0.00,,,0.00,Wunderground v.1.15,2013-06-14 17:40:00,
2013-06-14 12:45:00,77.3,58.8,30.07,NE,46,3.0,3.0,53,0.00,,,0.00,Wunderground v.1.15,2013-06-14 17:45:00,
2013-06-14 12:50:00,77.1,58.1,30.07,NE,36,3.0,4.0,52,0.00,,,0.00,Wunderground v.1.15,2013-06-14 17:50:00,
2013-06-14 12:55:00,77.3,57.8,30.07,ENE,76,3.0,7.0,51,0.00,,,0.00,Wunderground v.1.15,2013-06-14 17:55:00,
2013-06-14 13:00:00,77.6,58.0,30.07,East,98,3.0,5.0,51,0.00,,,0.00,Wunderground v.1.15,2013-06-14 18:00:00,
2013-06-14 13:05:00,78.0,58.4,30.06,ESE,119,4.0,5.0,51,0.00,,,0.00,Wunderground v.1.15,2013-06-14 18:05:00,
2013-06-14 13:10:00,78.4,58.2,30.06,East,92,3.0,5.0,50,0.00,,,0.00,Wunderground v.1.15,2013-06-14 18:10:00,
2013-06-14 13:15:00,78.3,58.7,30.06,South,190,2.0,5.0,51,0.00,,,0.00,Wunderground v.1.15,2013-06-14 18:15:00,
2013-06-14 13:20:00,78.3,59.2,30.05,ENE,73,2.0,4.0,52,0.00,,,0.00,Wunderground v.1.15,2013-06-14 18:20:00,
2013-06-14 13:25:00,78.6,57.8,30.05,SE,135,3.0,4.0,49,0.00,,,0.00,Wunderground v.1.15,2013-06-14 18:25:00,
2013-06-14 13:30:00,78.1,58.5,30.05,East,83,3.0,3.0,51,0.00,,,0.00,Wunderground v.1.15,2013-06-14 18:30:00,
2013-06-14 13:35:00,77.7,56.4,30.05,SE,142,3.0,3.0,48,0.00,,,0.00,Wunderground v.1.15,2013-06-14 18:35:00,
2013-06-14 13:40:00,77.8,58.8,30.05,SE,128,3.0,3.0,52,0.00,,,0.00,Wunderground v.1.15,2013-06-14 18:40:00,
2013-06-14 13:45:00,77.6,56.4,30.05,SSW,198,3.0,4.0,48,0.00,,,0.00,Wunderground v.1.15,2013-06-14 18:45:00,
2013-06-14 13:50:00,77.6,56.9,30.05,South,176,3.0,3.0,49,0.00,,,0.00,Wunderground v.1.15,2013-06-14 18:50:00,
2013-06-14 13:55:00,77.8,56.5,30.05,ESE,108,3.0,3.0,48,0.00,,,0.00,Wunderground v.1.15,2013-06-14 18:55:00,
2013-06-14 14:00:00,78.0,57.3,30.05,South,174,3.0,3.0,49,0.00,,,0.00,Wunderground v.1.15,2013-06-14 19:00:00,
2013-06-14 14:05:00,78.3,56.4,30.05,NE,53,2.0,3.0,47,0.00,,,0.00,Wunderground v.1.15,2013-06-14 19:05:00,
2013-06-14 14:10:00,78.6,59.0,30.05,West,268,2.0,3.0,51,0.00,,,0.00,Wunderground v.1.15,2013-06-14 19:10:00,
2013-06-14 14:15:00,78.7,57.4,30.05,SSW,202,2.0,4.0,48,0.00,,,0.00,Wunderground v.1.15,2013-06-14 19:15:00,
2013-06-14 14:20:00,78.9,59.2,30.05,WSW,251,2.0,7.0,51,0.00,,,0.00,Wunderground v.1.15,2013-06-14 19:20:00,
2013-06-14 14:25:00,79.1,58.9,30.05,SSW,203,3.0,7.0,50,0.00,,,0.00,Wunderground v.1.15,2013-06-14 19:25:00,
2013-06-14 14:30:00,79.0,60.4,30.04,West,273,3.0,3.0,53,0.00,,,0.00,Wunderground v.1.15,2013-06-14 19:30:00,
2013-06-14 14:35:00,79.0,59.3,30.04,West,267,4.0,4.0,51,0.00,,,0.00,Wunderground v.1.15,2013-06-14 19:35:00,
2013-06-14 14:40:00,78.9,58.7,30.04,SW,225,4.0,4.0,50,0.00,,,0.00,Wunderground v.1.15,2013-06-14 19:40:00,
2013-06-14 14:45:00,78.9,58.1,30.04,SSW,209,3.0,5.0,49,0.00,,,0.00,Wunderground v.1.15,2013-06-14 19:45:00,
2013-06-14 14:50:00,79.1,58.3,30.03,SSE,156,3.0,3.0,49,0.00,,,0.00,Wunderground v.1.15,2013-06-14 19:50:00,
2013-06-14 14:55:00,79.3,60.1,30.03,WSW,254,3.0,3.0,52,0.00,,,0.00,Wunderground v.1.15,2013-06-14 19:55:00,
2013-06-14 15:00:00,79.6,57.6,30.02,SSE,152,2.0,4.0,47,0.00,,,0.00,Wunderground v.1.15,2013-06-14 20:00:00,
2013-06-14 15:05:00,79.7,58.3,30.02,SSW,195,2.0,4.0,48,0.00,,,0.00,Wunderground v.1.15,2013-06-14 20:05:00,
2013-06-14 15:10:00,79.8,57.8,30.02,SW,234,2.0,2.0,47,0.00,,,0.00,Wunderground v.1.15,2013-06-14 20:10:00,
2013-06-14 15:15:00,79.4,56.2,30.02,West,267,3.0,3.0,45,0.00,,,0.00,Wunderground v.1.15,2013-06-14 20:15:00,
2013-06-14 15:20:00,79.2,57.8,30.02,SSE,164,3.0,3.0,48,0.00,,,0.00,Wunderground v.1.15,2013-06-14 20:20:00,
2013-06-14 15:25:00,78.7,55.6,30.02,ESE,115,3.0,3.0,45,0.00,,,0.00,Wunderground v.1.15,2013-06-14 20:25:00,
2013-06-14 15:30:00,78.7,57.4,30.01,South,183,2.0,3.0,48,0.00,,,0.00,Wunderground v.1.15,2013-06-14 20:30:00,
2013-06-14 15:35:00,78.9,57.5,30.01,East,88,2.0,3.0,48,0.00,,,0.00,Wunderground v.1.15,2013-06-14 20:35:00,
2013-06-14 15:40:00,79.3,59.0,30.01,ESE,102,2.0,2.0,50,0.00,,,0.00,Wunderground v.1.15,2013-06-14 20:40:00,
2013-06-14 15:45:00,79.6,57.0,30.01,ENE,77,2.0,2.0,46,0.00,,,0.00,Wunderground v.1.15,2013-06-14 20:45:00,
2013-06-14 15:50:00,79.9,57.9,30.01,SSW,197,2.0,3.0,47,0.00,,,0.00,Wunderground v.1.15,2013-06-14 20:50:00,
2013-06-14 15:55:00,79.9,57.3,30.00,WSW,258,2.0,3.0,46,0.00,,,0.00,Wunderground v.1.15,2013-06-14 20:55:00,
2013-06-14 16:00:00,79.4,58.0,30.00,West,265,3.0,3.0,48,0.00,,,0.00,Wunderground v.1.15,2013-06-14 21:00:00,
2013-06-14 16:05:00,78.9,57.0,30.00,SSE,157,3.0,3.0,47,0.00,,,0.00,Wunderground v.1.15,2013-06-14 21:05:00,
2013-06-14 16:10:00,78.7,57.4,29.99,East,92,3.0,3.0,48,0.00,,,0.00,Wunderground v.1.15,2013-06-14 21:10:00,
2013-06-14 16:15:00,78.5,56.6,29.99,ENE,78,3.0,3.0,47,0.00,,,0.00,Wunderground v.1.15,2013-06-14 21:15:00,
2013-06-14 16:25:00,78.1,56.8,29.99,ENE,78,2.0,3.0,48,0.00,,,0.00,Wunderground v.1.15,2013-06-14 21:25:00,
2013-06-14 16:30:00,78.1,56.2,29.99,SSW,203,2.0,3.0,47,0.00,,,0.00,Wunderground v.1.15,2013-06-14 21:30:00,
2013-06-14 16:35:00,78.2,56.3,29.99,East,92,2.0,3.0,47,0.00,,,0.00,Wunderground v.1.15,2013-06-14 21:35:00,
2013-06-14 16:40:00,78.4,57.7,29.99,SW,229,3.0,3.0,49,0.00,,,0.00,Wunderground v.1.15,2013-06-14 21:40:00,
2013-06-14 16:45:00,78.4,57.1,29.99,South,184,3.0,3.0,48,0.00,,,0.00,Wunderground v.1.15,2013-06-14 21:45:00,
2013-06-14 16:50:00,78.3,56.4,29.99,SW,221,2.0,2.0,47,0.00,,,0.00,Wunderground v.1.15,2013-06-14 21:50:00,
2013-06-14 16:55:00,78.3,55.8,29.98,ESE,117,1.0,2.0,46,0.00,,,0.00,Wunderground v.1.15,2013-06-14 21:55:00,
2013-06-14 17:00:00,78.2,56.3,29.98,SE,146,1.0,5.0,47,0.00,,,0.00,Wunderground v.1.15,2013-06-14 22:00:00,
2013-06-14 17:05:00,78.2,56.9,29.98,ESE,103,2.0,5.0,48,0.00,,,0.00,Wunderground v.1.15,2013-06-14 22:05:00,
2013-06-14 17:10:00,78.2,56.3,29.98,ESE,113,2.0,2.0,47,0.00,,,0.00,Wunderground v.1.15,2013-06-14 22:10:00,
2013-06-14 17:15:00,78.1,56.8,29.98,South,175,2.0,3.0,48,0.00,,,0.00,Wunderground v.1.15,2013-06-14 22:15:00,
2013-06-14 17:20:00,78.1,57.9,29.97,SE,127,3.0,3.0,50,0.00,,,0.00,Wunderground v.1.15,2013-06-14 22:20:00,
2013-06-14 17:25:00,78.2,57.5,29.98,SSE,158,3.0,3.0,49,0.00,,,0.00,Wunderground v.1.15,2013-06-14 22:25:00,
2013-06-14 17:30:00,78.2,56.3,29.97,East,101,2.0,2.0,47,0.00,,,0.00,Wunderground v.1.15,2013-06-14 22:30:00,
2013-06-14 17:35:00,78.2,56.9,29.96,South,176,3.0,3.0,48,0.00,,,0.00,Wunderground v.1.15,2013-06-14 22:35:00,
2013-06-14 17:40:00,78.2,56.9,29.96,ESE,117,3.0,3.0,48,0.00,,,0.00,Wunderground v.1.15,2013-06-14 22:40:00,
2013-06-14 17:45:00,78.3,56.4,29.96,East,101,3.0,6.0,47,0.00,,,0.00,Wunderground v.1.15,2013-06-14 22:45:00,
2013-06-14 17:50:00,78.2,56.3,29.96,East,92,4.0,4.0,47,0.00,,,0.00,Wunderground v.1.15,2013-06-14 22:50:00,
2013-06-14 17:55:00,78.1,56.2,29.96,ENE,65,3.0,4.0,47,0.00,,,0.00,Wunderground v.1.15,2013-06-14 22:55:00,
2013-06-14 18:05:00,78.1,56.8,29.95,ESE,114,3.0,6.0,48,0.00,,,0.00,Wunderground v.1.15,2013-06-14 23:05:00,
2013-06-14 18:10:00,77.8,57.7,29.95,ESE,108,2.0,3.0,50,0.00,,,0.00,Wunderground v.1.15,2013-06-14 23:10:00,
2013-06-14 18:15:00,77.5,56.8,29.95,ESE,109,2.0,4.0,49,0.00,,,0.00,Wunderground v.1.15,2013-06-14 23:15:00,
2013-06-14 18:20:00,77.2,57.1,29.95,East,96,2.0,2.0,50,0.00,,,0.00,Wunderground v.1.15,2013-06-14 23:20:00,
2013-06-14 18:25:00,77.1,57.0,29.95,East,84,2.0,2.0,50,0.00,,,0.00,Wunderground v.1.15,2013-06-14 23:25:00,
2013-06-14 18:30:00,76.9,56.3,29.95,ENE,65,2.0,5.0,49,0.00,,,0.00,Wunderground v.1.15,2013-06-14 23:30:00,
2013-06-14 18:35:00,76.8,56.8,29.95,ESE,104,2.0,5.0,50,0.00,,,0.00,Wunderground v.1.15,2013-06-14 23:35:00,
2013-06-14 18:40:00,76.7,57.2,29.95,ESE,117,2.0,2.0,51,0.00,,,0.00,Wunderground v.1.15,2013-06-14 23:40:00,
2013-06-14 18:45:00,76.4,55.8,29.95,East,82,2.0,3.0,49,0.00,,,0.00,Wunderground v.1.15,2013-06-14 23:45:00,
2013-06-14 18:50:00,76.2,56.2,29.95,South,174,2.0,2.0,50,0.00,,,0.00,Wunderground v.1.15,2013-06-14 23:50:00,
2013-06-14 18:55:00,75.9,56.5,29.95,East,86,2.0,3.0,51,0.00,,,0.00,Wunderground v.1.15,2013-06-14 23:55:00,
2013-06-14 19:00:00,75.7,56.3,29.95,SE,128,2.0,3.0,51,0.00,,,0.00,Wunderground v.1.15,2013-06-15 00:00:00,
2013-06-14 19:10:00,75.3,55.9,29.96,SSE,151,1.0,1.0,51,0.00,,,0.00,Wunderground v.1.15,2013-06-15 00:10:00,
2013-06-14 19:15:00,75.3,55.9,29.96,East,93,1.0,5.0,51,0.00,,,0.00,Wunderground v.1.15,2013-06-15 00:15:00,
2013-06-14 19:20:00,75.2,56.4,29.96,East,86,2.0,2.0,52,0.00,,,0.00,Wunderground v.1.15,2013-06-15 00:20:00,
2013-06-14 19:25:00,75.1,55.7,29.96,East,96,2.0,3.0,51,0.00,,,0.00,Wunderground v.1.15,2013-06-15 00:25:00,
2013-06-14 19:30:00,75.0,56.2,29.96,East,88,2.0,2.0,52,0.00,,,0.00,Wunderground v.1.15,2013-06-15 00:30:00,
2013-06-14 19:35:00,74.9,56.1,29.96,ESE,103,3.0,3.0,52,0.00,,,0.00,Wunderground v.1.15,2013-06-15 00:35:00,
2013-06-14 19:40:00,74.8,56.5,29.96,ESE,103,2.0,2.0,53,0.00,,,0.00,Wunderground v.1.15,2013-06-15 00:40:00,
2013-06-14 19:45:00,74.7,56.4,29.97,East,92,2.0,2.0,53,0.00,,,0.00,Wunderground v.1.15,2013-06-15 00:45:00,
2013-06-14 19:50:00,74.5,56.2,29.97,ESE,105,2.0,3.0,53,0.00,,,0.00,Wunderground v.1.15,2013-06-15 00:50:00,
2013-06-14 19:55:00,74.3,56.6,29.97,ESE,111,2.0,3.0,54,0.00,,,0.00,Wunderground v.1.15,2013-06-15 00:55:00,
2013-06-14 20:00:00,74.1,56.9,29.98,ESE,104,2.0,2.0,55,0.00,,,0.00,Wunderground v.1.15,2013-06-15 01:00:00,
2013-06-14 20:05:00,73.9,56.7,29.98,East,89,2.0,3.0,55,0.00,,,0.00,Wunderground v.1.15,2013-06-15 01:05:00,
2013-06-14 20:10:00,73.6,56.9,29.98,ESE,109,3.0,5.0,56,0.00,,,0.00,Wunderground v.1.15,2013-06-15 01:10:00,
2013-06-14 20:15:00,73.1,57.0,29.98,ENE,76,4.0,5.0,57,0.00,,,0.00,Wunderground v.1.15,2013-06-15 01:15:00,
2013-06-14 20:20:00,72.5,56.9,29.98,East,90,4.0,4.0,58,0.00,,,0.00,Wunderground v.1.15,2013-06-15 01:20:00,
2013-06-14 20:25:00,72.0,56.9,29.98,ESE,121,4.0,4.0,59,0.00,,,0.00,Wunderground v.1.15,2013-06-15 01:25:00,
2013-06-14 20:30:00,71.6,57.4,29.98,East,80,3.0,5.0,61,0.00,,,0.00,Wunderground v.1.15,2013-06-15 01:30:00,
2013-06-14 20:35:00,71.1,57.0,29.97,East,100,3.0,5.0,61,0.00,,,0.00,Wunderground v.1.15,2013-06-15 01:35:00,
2013-06-14 20:40:00,70.7,56.6,29.97,ESE,102,4.0,4.0,61,0.00,,,0.00,Wunderground v.1.15,2013-06-15 01:40:00,
2013-06-14 20:45:00,70.4,56.3,29.97,East,92,3.0,4.0,61,0.00,,,0.00,Wunderground v.1.15,2013-06-15 01:45:00,
2013-06-14 20:50:00,70.1,56.0,29.97,East,98,3.0,3.0,61,0.00,,,0.00,Wunderground v.1.15,2013-06-15 01:50:00,
2013-06-14 20:55:00,69.8,56.2,29.98,ENE,78,3.0,3.0,62,0.00,,,0.00,Wunderground v.1.15,2013-06-15 01:55:00,
2013-06-14 21:05:00,69.2,55.6,29.98,ESE,103,3.0,4.0,62,0.00,,,0.00,Wunderground v.1.15,2013-06-15 02:05:00,
2013-06-14 21:10:00,68.9,55.3,29.98,ESE,115,3.0,3.0,62,0.00,,,0.00,Wunderground v.1.15,2013-06-15 02:10:00,
2013-06-14 21:15:00,68.6,55.1,29.97,SSE,150,2.0,3.0,62,0.00,,,0.00,Wunderground v.1.15,2013-06-15 02:15:00,
2013-06-14 21:20:00,68.3,55.2,29.97,East,83,2.0,5.0,63,0.00,,,0.00,Wunderground v.1.15,2013-06-15 02:20:00,
2013-06-14 21:25:00,68.1,55.0,29.97,ESE,109,3.0,5.0,63,0.00,,,0.00,Wunderground v.1.15,2013-06-15 02:25:00,
2013-06-14 21:30:00,67.7,55.1,29.97,East,92,3.0,3.0,64,0.00,,,0.00,Wunderground v.1.15,2013-06-15 02:30:00,
2013-06-14 21:35:00,67.4,54.8,29.97,ESE,122,3.0,3.0,64,0.00,,,0.00,Wunderground v.1.15,2013-06-15 02:35:00,
2013-06-14 21:40:00,67.2,55.0,29.98,East,86,3.0,3.0,65,0.00,,,0.00,Wunderground v.1.15,2013-06-15 02:40:00,
2013-06-14 21:45:00,66.9,54.7,29.98,East,98,3.0,3.0,65,0.00,,,0.00,Wunderground v.1.15,2013-06-15 02:45:00,
2013-06-14 21:50:00,66.7,54.6,29.99,East,99,4.0,4.0,65,0.00,,,0.00,Wunderground v.1.15,2013-06-15 02:50:00,
2013-06-14 21:55:00,66.3,54.6,29.99,ESE,119,3.0,4.0,66,0.00,,,0.00,Wunderground v.1.15,2013-06-15 02:55:00,
2013-06-14 22:00:00,66.1,54.4,29.98,East,98,3.0,3.0,66,0.00,,,0.00,Wunderground v.1.15,2013-06-15 03:00:00,
2013-06-14 22:05:00,65.9,54.6,29.98,East,89,3.0,5.0,67,0.00,,,0.00,Wunderground v.1.15,2013-06-15 03:05:00,
2013-06-14 22:10:00,65.6,54.3,29.98,ESE,104,4.0,7.0,67,0.00,,,0.00,Wunderground v.1.15,2013-06-15 03:10:00,
2013-06-14 22:15:00,65.3,54.1,29.98,East,89,4.0,7.0,67,0.00,,,0.00,Wunderground v.1.15,2013-06-15 03:15:00,
2013-06-14 22:20:00,65.0,53.8,29.98,ESE,103,3.0,3.0,67,0.00,,,0.00,Wunderground v.1.15,2013-06-15 03:20:00,
2013-06-14 22:25:00,64.8,53.6,29.98,East,93,3.0,3.0,67,0.00,,,0.00,Wunderground v.1.15,2013-06-15 03:25:00,
2013-06-14 22:30:00,64.6,53.8,29.99,East,95,3.0,3.0,68,0.00,,,0.00,Wunderground v.1.15,2013-06-15 03:30:00,
2013-06-14 22:35:00,64.3,54.3,29.98,ESE,102,2.0,3.0,70,0.00,,,0.00,Wunderground v.1.15,2013-06-15 03:35:00,
2013-06-14 22:40:00,63.9,53.9,29.98,ESE,107,3.0,8.0,70,0.00,,,0.00,Wunderground v.1.15,2013-06-15 03:40:00,
2013-06-14 22:45:00,63.6,54.0,29.98,East,98,3.0,8.0,71,0.00,,,0.00,Wunderground v.1.15,2013-06-15 03:45:00,
2013-06-14 22:50:00,63.3,53.7,29.97,East,92,3.0,3.0,71,0.00,,,0.00,Wunderground v.1.15,2013-06-15 03:50:00,
2013-06-14 22:55:00,63.0,53.4,29.97,East,86,4.0,4.0,71,0.00,,,0.00,Wunderground v.1.15,2013-06-15 03:55:00,
2013-06-14 23:05:00,62.7,53.2,29.98,East,90,3.0,3.0,71,0.00,,,0.00,Wunderground v.1.15,2013-06-15 04:05:00,
2013-06-14 23:10:00,62.5,52.6,29.98,ESE,106,3.0,3.0,70,0.00,,,0.00,Wunderground v.1.15,2013-06-15 04:10:00,
2013-06-14 23:15:00,62.4,52.5,29.97,East,89,3.0,5.0,70,0.00,,,0.00,Wunderground v.1.15,2013-06-15 04:15:00,
2013-06-14 23:20:00,62.3,52.8,29.97,East,99,3.0,3.0,71,0.00,,,0.00,Wunderground v.1.15,2013-06-15 04:20:00,
2013-06-14 23:25:00,62.1,52.6,29.97,East,101,3.0,5.0,71,0.00,,,0.00,Wunderground v.1.15,2013-06-15 04:25:00,
2013-06-14 23:30:00,61.9,52.4,29.97,East,88,3.0,3.0,71,0.00,,,0.00,Wunderground v.1.15,2013-06-15 04:30:00,
2013-06-14 23:40:00,61.5,52.0,29.96,East,101,2.0,2.0,71,0.00,,,0.00,Wunderground v.1.15,2013-06-15 04:40:00,
2013-06-14 23:45:00,61.5,51.6,29.96,ESE,109,3.0,3.0,70,0.00,,,0.00,Wunderground v.1.15,2013-06-15 04:45:00,
2013-06-14 23:50:00,61.4,51.5,29.96,East,92,3.0,3.0,70,0.00,,,0.00,Wunderground v.1.15,2013-06-15 04:50:00,
2013-06-14 23:55:00,61.3,51.8,29.96,ESE,113,3.0,4.0,71,0.00,,,0.00,Wunderground v.1.15,2013-06-15 04:55:00,